Погода в Пижанке

Россия / Кировская область     57°27′33″N   48°32′15″E
темп.,
°C
ветер,
м/с
пор.,
м/с
влажн.,
%
обл.,
%
осадки,
мм/ч
давл.,
гПа
погр.,
м
13 июня, вс
вс1300:00+12вюв499871 0.0 1012239
03:00+12вюв489957 0.0 1012213
06:00+15юв469491 0.0 1012314
09:00+20ююв457634 0.0 1011795
12:00+23ююв566949 1.5 10101310
15:00+23ю577444 5.8 10101170
18:00+21ю488122 2.3 1010314
21:00+17ююв48909 2.9 1011130
14 июня, пн
пн1400:00+16ю41195100 0.5 1011276
03:00+15ю4109646 0.5 1011244
06:00+17ююз599281 0.0 1012387
09:00+21юз687581 0.0 1013888
12:00+23зюз686822 0.6 10131422
15:00+23зюз4668100 2.2 10141007
18:00+22з257910 2.4 1013173
21:00+18зюз228384 2.4 101411
15 июня, вт
вт1500:00+18ююз338798 0.1 101439
03:00+16з228969 0.1 101411
06:00+19ссз12820 0.0 1014138
09:00+23юз22676 0.0 1014561
12:00+25зюз225689 0.0 10131269
15:00+26юз125279 0.2 10121596
18:00+25ю22692 0.0 1011177
21:00+21ю3372100 0.1 101135
16 июня, ср
ср1600:00+18ююз33825 0.0 101039
03:00+17ююз229044 0.0 101020
06:00+20юз248194 0.0 1010173
09:00+23ююз347676 0.9 1009329
12:00+25юз4661100 0.8 10081530
15:00+21зсз5883100 3.1 1007245
18:00+18з3590100 1.1 1007148
21:00+15сз511885 1.4 1010387
17 июня, чт
чт1700:00+12зсз39920 0.0 1011181
03:00+10сз49860 0.0 1013179
06:00+12сз512780 0.0 1014585
09:00+16ссз68600 0.0 10161319
12:00+17ссз6862100 0.1 10171376
15:00+19сз685276 0.3 10172053
18:00+17ссз48625 0.0 1019376
21:00+11ссз33675 0.0 102131